Terminal Aerodrome Forecast
Issued by NWS

Home | Current Version | Previous Version | Text Only | Print | Product List | Glossary On
Versions: 1 2 3 4 5 6 7 8 9 10 11 12 13
000
FTUS46 KEKA 202331
TAFUKI
TAF
KUKI 202331Z 2100/2124 VRB05KT P6SM SKC
     FM210200 VRB05KT P6SM SKC
     FM211200 VRB03KT 6SM BR BKN007
     FM211600 VRB03KT P6SM SCT010
     FM212200 24006KT P6SM SCT020=

USA.gov is the U.S. government's official web portal to all federal, state and local government web resources and services.